EW3286 Weather Reports


time (UTC)temp
C
wind
direction
speed
KPH
gust
KPH
rain 1hr
cm
rain 24hr
cm
rain mn
cm
humidity
%
barometer
mb
20260504201519 16 168 0.0 0.0 0.00 0.00 0.00 36 1003.2
20260504200014 16 193 0.0 0.0 0.00 0.00 0.00 34 1003.1
20260504194511 16 217 0.0 0.0 0.00 0.00 0.00 33 1003.1
20260504193008 16 220 0.0 0.0 0.00 0.00 0.00 32 1002.8
20260504191507 17 218 0.0 0.0 0.00 0.00 0.00 34 1002.7
20260504190002 17 205 0.0 0.0 0.00 0.00 0.00 34 1002.6
20260504184600 16 258 0.0 0.0 0.00 0.00 0.00 36 1002.6
20260504183100 16 202 0.0 0.0 0.00 0.00 0.00 33 1002.5
20260504181601 16 216 0.0 0.0 0.00 0.00 0.00 34 1002.3
20260504180058 16 253 0.0 0.0 0.00 0.00 0.00 34 1002.0
20260504174556 17 252 0.0 0.0 0.00 0.00 0.00 33 1001.7
20260504173054 17 226 0.0 0.0 0.00 0.00 0.00 36 1001.8
20260504171554 16 199 0.0 0.0 0.00 0.00 0.00 36 1001.6
20260504081533 11 96 0.0 0.0 0.00 0.00 0.00 57 1000.4
20260504044607 13 113 0.0 0.0 0.00 0.00 0.00 48 1003.5
20260504043053 13 149 0.0 0.0 0.00 0.00 0.00 49 1003.6
20260504041550 12 139 0.0 0.0 0.00 0.00 0.00 51 1003.7
20260504040055 12 136 0.0 0.0 0.00 0.00 0.00 52 1004.1
20260504034545 12 124 0.0 0.0 0.00 0.00 0.00 51 1004.3
20260504033043 12 148 0.0 0.0 0.00 0.00 0.00 51 1004.6
20260504031542 12 148 0.0 0.0 0.00 0.00 0.00 50 1004.9
20260504030041 12 148 0.0 0.0 0.00 0.00 0.00 49 1005.1
20260504024539 12 148 0.0 0.0 0.00 0.00 0.00 46 1005.2
20260504023040 13 148 0.0 0.0 0.00 0.00 0.00 45 1005.2
20260504021540 13 159 0.0 0.0 0.00 0.00 0.00 43 1005.0
20260504020037 14 159 0.0 0.0 0.00 0.00 0.00 42 1005.0
20260504014541 15 153 0.0 0.0 0.00 0.00 0.00 41 1004.9
20260504013049 16 159 0.0 0.0 0.00 0.00 0.00 39 1005.1
20260504011538 18 159 0.0 0.0 0.00 0.00 0.00 35 1005.1
20260504010039 19 169 0.0 0.0 0.00 0.00 0.00 30 1005.2
20260504004534 20 182 0.0 0.0 0.00 0.00 0.00 29 1005.3
20260504003036 20 175 0.0 0.0 0.00 0.00 0.00 26 1005.4
20260504001538 20 175 0.0 0.0 0.00 0.00 0.00 27 1005.4
20260504000032 20 204 0.0 0.0 0.00 0.00 0.00 28 1005.5
20260503234532 21 178 0.0 0.0 0.00 0.00 0.00 27 1005.6
20260503233029 21 199 0.0 0.0 0.00 0.00 0.00 27 1005.7
20260503231528 21 182 0.0 0.0 0.00 0.00 0.00 28 1005.6
20260503230026 21 225 0.0 0.0 0.00 0.00 0.00 27 1005.8
20260503224523 21 196 0.0 0.0 0.00 0.00 0.00 26 1005.9
20260503223023 21 215 0.0 0.0 0.00 0.00 0.00 25 1006.0
20260503221523 21 183 0.0 0.0 0.00 0.00 0.00 25 1006.2
20260503220025 21 183 0.0 0.0 0.00 0.00 0.00 29 1006.2
20260503214522 21 236 0.0 0.0 0.00 0.00 0.00 30 1006.3
20260503213014 21 209 0.0 0.0 0.00 0.00 0.00 28 1006.5
20260503211510 21 206 0.0 0.0 0.00 0.00 0.00 31 1006.7
20260503210007 21 234 0.0 0.0 0.00 0.00 0.00 29 1006.8
20260503204507 21 194 0.0 0.0 0.00 0.00 0.00 32 1007.1
20260503203100 20 235 0.0 0.0 0.00 0.00 0.00 31 1007.1